HS6PNA-2 Weather Reports


time (UTC)temp
F
wind
direction
speed
knots
gust
knots
rain 1hr
in
rain 24hr
in
rain mn
in
humidity
%
barometer
mb
20260504080654 93 0 0.0 0.0 0.00 0.00 0.00 42 1002.0
20260504050201 92 0 0.0 0.0 0.00 0.00 0.00 35 1005.0
20260504044636 90 0 0.0 0.0 0.00 0.00 0.00 36 1005.0
20260504043112 93 0 0.0 0.0 0.00 0.00 0.00 47 1005.0
20260504041547 97 0 0.0 0.0 0.00 0.00 0.00 46 1005.0
20260504040023 97 0 0.0 0.0 0.00 0.00 0.00 47 1005.0
20260504034458 97 0 0.0 0.0 0.00 0.00 0.00 47 1005.0
20260504032933 96 0 0.0 0.0 0.00 0.00 0.00 49 1006.0
20260504031409 95 0 0.0 0.0 0.00 0.00 0.00 50 1006.0
20260504025844 94 0 0.0 0.0 0.00 0.00 0.00 51 1006.0
20260504024320 94 0 0.0 0.0 0.00 0.00 0.00 51 1006.0
20260504022756 94 0 0.0 0.0 0.00 0.00 0.00 51 1006.0
20260504021231 94 0 0.0 0.0 0.00 0.00 0.00 52 1006.0
20260504015707 94 0 0.0 0.0 0.00 0.00 0.00 51 1006.0
20260504014142 94 0 0.0 0.0 0.00 0.00 0.00 52 1006.0
20260504012618 93 0 0.0 0.0 0.00 0.00 0.00 54 1006.0
20260504011053 93 0 0.0 0.0 0.00 0.00 0.00 54 1006.0
20260504005528 93 0 0.0 0.0 0.00 0.00 0.00 52 1006.0
20260504004004 93 0 0.0 0.0 0.00 0.00 0.00 49 1005.0
20260504002439 93 0 0.0 0.0 0.00 0.00 0.00 50 1005.0
20260504000915 93 0 0.0 0.0 0.00 0.00 0.00 48 1005.0
20260503235350 93 0 0.0 0.0 0.00 0.00 0.00 48 1005.0
20260503233826 93 0 0.0 0.0 0.00 0.00 0.00 47 1004.0
20260503232431 93 0 0.0 0.0 0.00 0.00 0.00 47 1004.0
20260503230906 93 0 0.0 0.0 0.00 0.00 0.00 47 1004.0
20260503225341 93 0 0.0 0.0 0.00 0.00 0.00 47 1004.0
20260503223817 92 0 0.0 0.0 0.00 0.00 0.00 47 1004.0
20260503222252 93 0 0.0 0.0 0.00 0.00 0.00 47 1004.0
20260503220728 93 0 0.0 0.0 0.00 0.00 0.00 46 1004.0
20260503215203 93 0 0.0 0.0 0.00 0.00 0.00 45 1003.0
20260503213638 93 0 0.0 0.0 0.00 0.00 0.00 45 1003.0
20260503212114 93 0 0.0 0.0 0.00 0.00 0.00 46 1003.0
20260503210549 93 0 0.0 0.0 0.00 0.00 0.00 45 1003.0
20260503205024 93 0 0.0 0.0 0.00 0.00 0.00 45 1003.0
20260503203459 93 0 0.0 0.0 0.00 0.00 0.00 44 1003.0
20260503201935 94 0 0.0 0.0 0.00 0.00 0.00 44 1003.0
20260503200410 93 0 0.0 0.0 0.00 0.00 0.00 44 1003.0
20260503194846 93 0 0.0 0.0 0.00 0.00 0.00 44 1003.0
20260503193321 93 0 0.0 0.0 0.00 0.00 0.00 44 1003.0
20260503191756 93 0 0.0 0.0 0.00 0.00 0.00 43 1003.0
20260503190231 94 0 0.0 0.0 0.00 0.00 0.00 42 1003.0
20260503185252 94 0 0.0 0.0 0.00 0.00 0.00 42 1003.0
20260503183727 94 0 0.0 0.0 0.00 0.00 0.00 42 1003.0
20260503182203 94 0 0.0 0.0 0.00 0.00 0.00 41 1003.0
20260503180638 94 0 0.0 0.0 0.00 0.00 0.00 40 1004.0
20260503175114 94 0 0.0 0.0 0.00 0.00 0.00 40 1004.0
20260503173549 94 0 0.0 0.0 0.00 0.00 0.00 40 1004.0
20260503172025 94 0 0.0 0.0 0.00 0.00 0.00 39 1004.0
20260503170500 94 0 0.0 0.0 0.00 0.00 0.00 40 1004.0
20260503150145 93 0 0.0 0.0 0.00 0.00 0.00 37 1003.0
20260503131353 85 0 0.0 0.0 0.00 0.00 0.00 35 1002.0